| time (UTC) | temp F | wind direction | speed MPH | gust MPH | rain 1hr in | rain 24hr in | rain mn in | humidity % | barometer mb |
| 20260901031608 | 85 | 11 | 4.0 | 12.0 | 0.00 | 0.00 | 0.00 | 53 | 1012.6 |
| 20260901030022 | 85 | 11 | 2.0 | 9.0 | 0.00 | 0.00 | 0.00 | 55 | 1012.4 |
| 20260901024613 | 85 | 181 | 1.0 | 5.0 | 0.00 | 0.00 | 0.00 | 56 | 1012.3 |
| 20260901023031 | 85 | 155 | 2.0 | 10.0 | 0.00 | 0.00 | 0.00 | 57 | 1012.2 |
| 20260901021625 | 86 | 11 | 2.0 | 5.0 | 0.00 | 0.00 | 0.00 | 57 | 1012.2 |
| 20260901020049 | 86 | 11 | 1.0 | 4.0 | 0.00 | 0.00 | 0.00 | 58 | 1012.0 |
| 20260901014504 | 87 | 11 | 0.0 | 3.0 | 0.00 | 0.00 | 0.00 | 57 | 1011.9 |
| 20260901013058 | 88 | 11 | 0.0 | 5.0 | 0.00 | 0.00 | 0.00 | 57 | 1011.8 |
| 20260901011634 | 89 | 176 | 0.0 | 3.0 | 0.00 | 0.00 | 0.00 | 55 | 1011.6 |
| 20260901010041 | 90 | 173 | 0.0 | 2.0 | 0.00 | 0.00 | 0.00 | 54 | 1011.6 |
| 20260901004503 | 91 | 11 | 0.0 | 3.0 | 0.00 | 0.00 | 0.00 | 52 | 1011.4 |
| 20260901003044 | 93 | 193 | 0.0 | 1.0 | 0.00 | 0.00 | 0.00 | 51 | 1011.4 |
| 20260901001632 | 94 | 194 | 0.0 | 3.0 | 0.00 | 0.00 | 0.00 | 50 | 1011.2 |
| 20260901000044 | 94 | 11 | 1.0 | 4.0 | 0.00 | 0.00 | 0.00 | 48 | 1011.3 |
| 20260831234505 | 95 | 11 | 1.0 | 6.0 | 0.00 | 0.00 | 0.00 | 47 | 1011.3 |
| 20260831233047 | 96 | 11 | 1.0 | 5.0 | 0.00 | 0.00 | 0.00 | 45 | 1011.2 |
| 20260831231634 | 96 | 11 | 3.0 | 9.0 | 0.00 | 0.00 | 0.00 | 43 | 1011.3 |
| 20260831230039 | 97 | 11 | 2.0 | 7.0 | 0.00 | 0.00 | 0.00 | 42 | 1011.2 |
| 20260831224643 | 97 | 207 | 3.0 | 9.0 | 0.00 | 0.00 | 0.00 | 40 | 1011.2 |
| 20260831223043 | 98 | 224 | 2.0 | 10.0 | 0.00 | 0.00 | 0.00 | 40 | 1011.4 |
| 20260831221632 | 98 | 11 | 2.0 | 17.0 | 0.00 | 0.00 | 0.00 | 41 | 1011.3 |
| 20260831220053 | 99 | 11 | 7.0 | 16.0 | 0.00 | 0.00 | 0.00 | 39 | 1011.4 |
| 20260831214630 | 101 | 11 | 2.0 | 15.0 | 0.00 | 0.00 | 0.00 | 39 | 1011.5 |
| 20260831213044 | 101 | 286 | 4.0 | 12.0 | 0.00 | 0.00 | 0.00 | 39 | 1011.3 |
| 20260831211514 | 101 | 210 | 5.0 | 17.0 | 0.00 | 0.00 | 0.00 | 38 | 1011.4 |
| 20260831210104 | 102 | 212 | 5.0 | 16.0 | 0.00 | 0.00 | 0.00 | 38 | 1011.5 |
| 20260831204521 | 103 | 11 | 7.0 | 23.0 | 0.00 | 0.00 | 0.00 | 38 | 1011.7 |
| 20260831203111 | 102 | 193 | 3.0 | 15.0 | 0.00 | 0.00 | 0.00 | 38 | 1011.7 |
| 20260831201522 | 102 | 11 | 3.0 | 13.0 | 0.00 | 0.00 | 0.00 | 37 | 1011.8 |
| 20260831200110 | 102 | 11 | 4.0 | 23.0 | 0.00 | 0.00 | 0.00 | 39 | 1011.7 |
| 20260831194551 | 101 | 264 | 6.0 | 18.0 | 0.00 | 0.00 | 0.00 | 38 | 1011.8 |
| 20260831193126 | 101 | 206 | 8.0 | 19.0 | 0.00 | 0.00 | 0.00 | 38 | 1011.8 |
| 20260831191547 | 100 | 11 | 4.0 | 16.0 | 0.00 | 0.00 | 0.00 | 41 | 1011.8 |
| 20260831190142 | 100 | 222 | 7.0 | 19.0 | 0.00 | 0.00 | 0.00 | 41 | 1012.0 |
| 20260831184549 | 99 | 269 | 7.0 | 17.0 | 0.00 | 0.00 | 0.00 | 41 | 1012.0 |
| 20260831183004 | 98 | 11 | 6.0 | 24.0 | 0.00 | 0.00 | 0.00 | 44 | 1012.2 |
| 20260831181549 | 98 | 11 | 6.0 | 17.0 | 0.00 | 0.00 | 0.00 | 43 | 1012.3 |
| 20260831180124 | 97 | 11 | 7.0 | 22.0 | 0.00 | 0.00 | 0.00 | 43 | 1012.5 |
| 20260831174546 | 96 | 208 | 7.0 | 17.0 | 0.00 | 0.00 | 0.00 | 45 | 1012.7 |
| 20260831173130 | 95 | 11 | 7.0 | 18.0 | 0.00 | 0.00 | 0.00 | 46 | 1013.0 |
| 20260831171542 | 93 | 211 | 2.0 | 15.0 | 0.00 | 0.00 | 0.00 | 52 | 1013.2 |
| 20260831170135 | 91 | 11 | 5.0 | 18.0 | 0.00 | 0.00 | 0.00 | 52 | 1013.2 |
| 20260831164550 | 91 | 11 | 4.0 | 18.0 | 0.00 | 0.00 | 0.00 | 52 | 1013.3 |
| 20260831163007 | 90 | 11 | 5.0 | 14.0 | 0.00 | 0.00 | 0.00 | 54 | 1013.3 |
| 20260831161550 | 89 | 11 | 6.0 | 21.0 | 0.00 | 0.00 | 0.00 | 53 | 1013.4 |
| 20260831160011 | 90 | 11 | 4.0 | 19.0 | 0.00 | 0.00 | 0.00 | 53 | 1013.4 |
| 20260831154615 | 90 | 234 | 7.0 | 16.0 | 0.00 | 0.00 | 0.00 | 52 | 1013.5 |
| 20260831153131 | 89 | 11 | 5.0 | 20.0 | 0.00 | 0.00 | 0.00 | 54 | 1013.3 |
| 20260831151554 | 87 | 260 | 3.0 | 21.0 | 0.00 | 0.00 | 0.00 | 57 | 1013.3 |
| 20260831150007 | 86 | 11 | 7.0 | 16.0 | 0.00 | 0.00 | 0.00 | 59 | 1013.2 |
| 20260831144548 | 84 | 11 | 6.0 | 19.0 | 0.00 | 0.00 | 0.00 | 60 | 1013.5 |
| 20260831143006 | 83 | 11 | 4.0 | 18.0 | 0.00 | 0.00 | 0.00 | 63 | 1013.5 |
| 20260831141542 | 81 | 216 | 6.0 | 15.0 | 0.00 | 0.00 | 0.00 | 66 | 1013.4 |
| 20260831140133 | 79 | 11 | 4.0 | 13.0 | 0.00 | 0.00 | 0.00 | 69 | 1013.4 |
| 20260831134550 | 78 | 11 | 4.0 | 11.0 | 0.00 | 0.00 | 0.00 | 68 | 1013.6 |
| 20260831133004 | 78 | 11 | 4.0 | 16.0 | 0.00 | 0.00 | 0.00 | 68 | 1013.5 |
| 20260831131609 | 78 | 11 | 5.0 | 16.0 | 0.00 | 0.00 | 0.00 | 68 | 1013.4 |
| 20260831130016 | 77 | 11 | 6.0 | 14.0 | 0.00 | 0.00 | 0.00 | 68 | 1013.5 |
| 20260831124603 | 77 | 11 | 5.0 | 17.0 | 0.00 | 0.00 | 0.00 | 68 | 1013.4 |
| 20260831123009 | 77 | 11 | 4.0 | 12.0 | 0.00 | 0.00 | 0.00 | 68 | 1013.1 |
| 20260831121609 | 77 | 11 | 5.0 | 14.0 | 0.00 | 0.00 | 0.00 | 68 | 1012.9 |
| 20260831120026 | 77 | 203 | 4.0 | 15.0 | 0.00 | 0.00 | 0.00 | 67 | 1012.5 |
| 20260831114613 | 77 | 11 | 5.0 | 15.0 | 0.00 | 0.00 | 0.00 | 67 | 1012.5 |
| 20260831113030 | 77 | 210 | 5.0 | 14.0 | 0.00 | 0.00 | 0.00 | 66 | 1012.5 |
| 20260831111614 | 77 | 11 | 3.0 | 11.0 | 0.00 | 0.00 | 0.00 | 66 | 1012.5 |
| 20260831110033 | 78 | 11 | 3.0 | 9.0 | 0.00 | 0.00 | 0.00 | 65 | 1012.5 |
| 20260831104621 | 78 | 11 | 2.0 | 11.0 | 0.00 | 0.00 | 0.00 | 64 | 1012.3 |
| 20260831103036 | 78 | 11 | 3.0 | 18.0 | 0.00 | 0.00 | 0.00 | 64 | 1011.9 |
| 20260831101614 | 79 | 11 | 3.0 | 13.0 | 0.00 | 0.00 | 0.00 | 63 | 1011.6 |
| 20260831100025 | 79 | 11 | 5.0 | 12.0 | 0.00 | 0.00 | 0.00 | 63 | 1011.3 |
| 20260831094637 | 79 | 154 | 3.0 | 13.0 | 0.00 | 0.00 | 0.00 | 62 | 1011.4 |
| 20260831093039 | 80 | 11 | 2.0 | 16.0 | 0.00 | 0.00 | 0.00 | 61 | 1011.4 |
| 20260831091618 | 80 | 11 | 5.0 | 16.0 | 0.00 | 0.00 | 0.00 | 61 | 1011.2 |
| 20260831090032 | 80 | 11 | 4.0 | 15.0 | 0.00 | 0.00 | 0.00 | 60 | 1011.1 |
| 20260831084619 | 81 | 182 | 2.0 | 10.0 | 0.00 | 0.00 | 0.00 | 60 | 1011.2 |
| 20260831083026 | 81 | 11 | 4.0 | 12.0 | 0.00 | 0.00 | 0.00 | 58 | 1011.3 |
| 20260831081623 | 81 | 11 | 4.0 | 17.0 | 0.00 | 0.00 | 0.00 | 58 | 1011.2 |
| 20260831080040 | 82 | 11 | 4.0 | 13.0 | 0.00 | 0.00 | 0.00 | 57 | 1011.2 |
| 20260831074625 | 82 | 193 | 5.0 | 12.0 | 0.00 | 0.00 | 0.00 | 56 | 1011.1 |
| 20260831073046 | 83 | 11 | 2.0 | 10.0 | 0.00 | 0.00 | 0.00 | 55 | 1011.0 |
| 20260831071635 | 83 | 11 | 2.0 | 14.0 | 0.00 | 0.00 | 0.00 | 54 | 1011.1 |
| 20260831070048 | 83 | 11 | 3.0 | 16.0 | 0.00 | 0.00 | 0.00 | 54 | 1010.8 |
| 20260831064505 | 84 | 195 | 3.0 | 13.0 | 0.00 | 0.00 | 0.00 | 53 | 1010.8 |
| 20260831063114 | 84 | 11 | 4.0 | 12.0 | 0.00 | 0.00 | 0.00 | 53 | 1010.6 |
| 20260831061518 | 84 | 11 | 4.0 | 15.0 | 0.00 | 0.00 | 0.00 | 53 | 1010.5 |
| 20260831060115 | 84 | 11 | 5.0 | 12.0 | 0.00 | 0.00 | 0.00 | 53 | 1010.3 |
| 20260831054520 | 84 | 11 | 4.0 | 18.0 | 0.00 | 0.00 | 0.00 | 53 | 1010.3 |
| 20260831053101 | 85 | 11 | 4.0 | 14.0 | 0.00 | 0.00 | 0.00 | 53 | 1010.3 |
| 20260831051513 | 85 | 11 | 5.0 | 16.0 | 0.00 | 0.00 | 0.00 | 52 | 1010.3 |
| 20260831050055 | 85 | 11 | 6.0 | 14.0 | 0.00 | 0.00 | 0.00 | 52 | 1010.2 |
| 20260831044507 | 86 | 11 | 6.0 | 16.0 | 0.00 | 0.00 | 0.00 | 52 | 1010.0 |
| 20260831043052 | 86 | 11 | 4.0 | 21.0 | 0.00 | 0.00 | 0.00 | 52 | 1010.1 |
| 20260831041506 | 86 | 180 | 5.0 | 14.0 | 0.00 | 0.00 | 0.00 | 52 | 1010.0 |
| 20260831040053 | 85 | 11 | 5.0 | 17.0 | 0.00 | 0.00 | 0.00 | 54 | 1010.0 |
| 20260831034515 | 85 | 11 | 2.0 | 10.0 | 0.00 | 0.00 | 0.00 | 54 | 1009.9 |
| 20260831033101 | 86 | 11 | 4.0 | 15.0 | 0.00 | 0.00 | 0.00 | 53 | 1010.0 |